Regional Weather Roundup
Issued by NWS Kansas City/Pleasant Hill, MO

Home | Current Version | Previous Version | Text Only | Print | Product List | Glossary On
Versions: 1 2 3 4 5 6 7 8 9 10 11 12 13 14 15 16 17 18 19 20 21 22 23 24 25 26 27 28 29 30 31 32 33 34 35 36 37 38 39 40 41 42 43 44 45 46 47 48 49 50
000
ASUS43 KEAX 260610
RWREAX

WEATHER ROUNDUP FOR EASTERN KANSAS AND NORTHWEST MISSOURI
NATIONAL WEATHER SERVICE KANSAS CITY/PLEASANT HILL MO
100 AM CDT WED APR 26 2017

KSZ040-057-103>105-MOZ028-029-037-043-260700-
...KANSAS CITY METROPOLITAN AREA...

CITY           SKY/WX    TMP DP  RH WIND       PRES   REMARKS
K.C. INTL      CLOUDY    49  47  93 N12       29.52R
6HR MIN TEMP:  49; 6HR MAX TEMP:  68; 6HR PCP:  0.12;

K.C. DOWNTOWN  LGT RAIN  52  49  89 N7        29.50S
6HR MIN TEMP:  52; 6HR MAX TEMP:  73; 6HR PCP:  0.24;

LEES SUMMIT    RAIN      53  52  96 NE6       29.50S FOG
6HR MIN TEMP:  53; 6HR MAX TEMP:  72; 6HR PCP:  0.35;

OLATHE - IXD   LGT RAIN  50  48  93 N10       29.51S
6HR MIN TEMP:  50; 6HR MAX TEMP:  70; 6HR PCP:  0.47;

OLATHE - OJC   LGT RAIN  50  50 100 N12       29.50F
6HR MIN TEMP:  50; 6HR MAX TEMP:  69; 6HR PCP:  0.04;

LAWRENCE       CLOUDY    49  46  90 NW15G21   29.53S

$$

MOZ001>008-011>017-020>025-030>033-038>040-044>046-053-054-260700-
...NORTHERN AND CENTRAL MISSOURI...

CITY           SKY/WX    TMP DP  RH WIND       PRES   REMARKS
ST. JOSEPH     CLOUDY    48  45  89 N13       29.53R
6HR MIN TEMP:  48; 6HR MAX TEMP:  64; 6HR PCP: TRACE;

MOSBY          LGT RAIN  52  50  93 NW5       29.50R
WHITEMAN AFB   TSTM      63  63 100 NW2       29.44F
6HR MIN TEMP:  62; 6HR MAX TEMP:  74; 6HR PCP:  0.30;

CLINTON        LGT RAIN  61  61 100 S8        29.48S
SEDALIA        LGT RAIN  64  62  93 CALM      29.49R
6HR MIN TEMP:  64; 6HR MAX TEMP:  78; 6HR PCP:  0.22;

WARSAW         NOT AVBL
CHILLICOTHE      N/A     56  53  90 NW9       29.48F
6HR MIN TEMP:  56; 6HR MAX TEMP:  72; 6HR PCP:  0.09;

KIRKSVILLE     CLOUDY    62  56  80 CALM      29.45F
6HR MIN TEMP:  61; 6HR MAX TEMP:  75;


$$

MOZ041-047>049-056>058-063>065-088>090-097-260700-
...EASTERN AND SOUTHERN MISSOURI...

CITY           SKY/WX    TMP DP  RH WIND       PRES   REMARKS
ST. LOUIS INTL MOCLDY    71  51  49 S10       29.50F
6HR MIN TEMP:  71; 6HR MAX TEMP:  79;

SPIRIT OF STL  PTCLDY    70  53  54 S6        29.49F
COLUMBIA       CLOUDY    66  57  72 S5        29.47F
JEFFERSON CITY CLOUDY    71  54  54 SE5       29.47F
ROLLA          MOCLDY    67  54  63 S10       29.49S
OSAGE BEACH    CLOUDY    68  57  68 S5        29.48F
SPRINGFIELD    CLOUDY    69  62  78 SE9       29.47F
BRANSON        CLOUDY    66  61  82 CALM      29.51S
JOPLIN         TSTM      60  59  96 W8        29.46R
WEST PLAINS    CLOUDY    67  54  63 S8        29.54F

$$

IAZ060-094-KSZ022-034>040-054-083-096-NEZ052-066-093-260700-
...KANSAS...SOUTHEAST NEBRASKA AND IOWA...

CITY           SKY/WX    TMP DP  RH WIND       PRES   REMARKS
TOPEKA         LGT RAIN  48  46  93 NW14      29.55R
6HR MIN TEMP:  48; 6HR MAX TEMP:  63; 6HR PCP:  0.01;

MANHATTAN      CLOUDY    46  40  79 N8        29.62R
EMPORIA        LGT RAIN  47  45  93 N15G23    29.52F
CHANUTE        LGT RAIN  53  51  93 N14       29.44F
WICHITA        LGT RAIN  46  42  86 N21G32    29.57R
OMAHA          CLOUDY    42  37  82 N18       29.57F WCI  34
LINCOLN        CLOUDY    40  35  83 N21       29.62F WCI  30
FALLS CITY     CLOUDY    45  41  86 N16G22    29.56R
LAMONI         TSTM      48  46  93 NW13      29.48S FOG
DES MOINES     DRIZZLE   49  45  86 NW9       29.50S

$$




USA.gov is the U.S. government's official web portal to all federal, state and local government web resources and services.